Location: Gisborne
(38.6530°S, 178.0040°E)
Time: 16:16:53
(UTC+12:00)

Cosmos 1486 Rocket - Pass Details

Date: 24 January 2019
Orbit: 759 x 783 km, 74.1° (Epoch: 17 April)

Event Time Altitude Azimuth Distance (km) Brightness Sun altitude
Exits shadow 22:37:22 - 333° (NNW) 2,360 6.3 -20.7°
Reaches altitude 10° 22:37:32 10° 333° (NNW) 2,295 6.2 -20.7°
Maximum altitude 22:42:42 67° 250° (WSW) 838 4.3 -21.4°
Drops below altitude 10° 22:48:00 10° 167° (SSE) 2,337 7.0 -22.0°
Sets 22:50:26 0° 164° (SSE) 3,274 7.8 -22.3°
